Flag for Moldova Weather past 2 weeks in Tiraspol, Moldova

Now
41 °F

Clear.


Feels Like: 37 °F
Forecast: 41 / 49 °F
Wind: 6 mph from West

Location: Chisinau International Airport

Current Time: Apr 20, 2015 at 2:15:05 AM

Latest Report: Apr 20, 2015 at 1:30 AM


Visibility: 10 mi

Pressure: 29.92 "Hg

Humidity: 66%

Dew point: 30 °F

Location of TiraspolLocation

Historic Weather in Tiraspol — Graph

°F

Tiraspol temperature yesterday

Maximum temperature yesterday: 50 °F (at 1:00 PM)
Minimum temperature yesterday: 39 °F (at 4:30 AM)
Average temperature yesterday: 44 °F

Past Weeks' High & Low Weather Summary

 TemperatureHumidityPressure
High77 °F (Apr 17, 4:00 PM)87% (Apr 5, 8:30 AM)30.36 "Hg (Apr 5, 8:30 AM)
Low28 °F (Apr 5, 5:00 AM)13% (Apr 12, 5:30 PM)29.65 "Hg (Apr 17, 7:30 PM)
Average51 °F50%30.02 "Hg
* Reported Apr 5 1:00 AM — Apr 20 1:00 AM, Tiraspol, Weather by CustomWeather, © 2015

Note: Actual official high and low records may vary slightly from our data, if they occured in-between our weather recording intervals... More about our weather records

Advertising

Tiraspol weather history for previous 24 hours

 ConditionsComfort  
Time TempWeatherWind HumidityBarometerVisibility
1:00 AM
Mon, Apr 20
41 °FClear.9 mph66%29.95 "Hg10 mi
12:30 AM41 °FClear.9 mph66%29.95 "Hg10 mi
12:00 AM39 °FClear.10 mph65%29.95 "Hg10 mi
11:30 PM
Sun, Apr 19
41 °FClear.12 mph61%29.95 "Hg10 mi
11:00 PM39 °FClear.12 mph70%29.95 "Hg10 mi
10:30 PM39 °FClear.9 mph65%29.95 "Hg10 mi
10:00 PM39 °FClear.9 mph70%29.98 "Hg10 mi
9:30 PM41 °FPassing clouds.9 mph61%29.98 "HgN/A
9:00 PM43 °FPassing clouds.9 mph57%29.98 "HgN/A
8:30 PM45 °FPassing clouds.9 mph49%29.95 "HgN/A
8:00 PM46 °FPassing clouds.10 mph50%29.95 "HgN/A
7:30 PM48 °FScattered clouds.12 mph43%29.95 "HgN/A
7:00 PM48 °FScattered clouds.15 mph40%29.95 "HgN/A
6:30 PM48 °FScattered clouds.13 mph50%29.95 "HgN/A
6:00 PM50 °FScattered clouds.14 mph47%29.95 "HgN/A
5:30 PM48 °FScattered clouds.15 mph50%29.95 "HgN/A
5:00 PM45 °FSprinkles. Partly sunny.26 mph61%29.95 "HgN/A
4:30 PM50 °FPartly sunny.17 mph54%29.92 "HgN/A
4:00 PM48 °FPassing clouds.18 mph58%29.92 "HgN/A
3:30 PM48 °FScattered clouds.17 mph58%29.95 "HgN/A
3:00 PM45 °FScattered clouds.13 mph66%29.95 "HgN/A
2:30 PM46 °FSprinkles. Partly sunny.7 mph66%29.92 "HgN/A
2:00 PM41 °FSprinkles. Partly sunny.23 mph76%29.95 "Hg4 mi
1:30 PM48 °FPartly sunny.16 mph50%29.95 "HgN/A
1:00 PM50 °FPartly sunny.14 mph43%29.92 "HgN/A
12:30 PM48 °FPartly sunny.14 mph50%29.92 "HgN/A
12:00 PM48 °FPartly sunny.18 mph54%29.95 "HgN/A
11:30 AM46 °FPartly sunny.18 mph53%29.95 "HgN/A
11:00 AM46 °FPartly sunny.18 mph50%29.95 "HgN/A
10:30 AM46 °FPartly sunny.16 mph53%29.92 "HgN/A
10:00 AM45 °FPartly sunny.14 mph57%29.92 "HgN/A
9:30 AM45 °FPartly sunny.15 mph61%29.92 "HgN/A
9:00 AM41 °FPartly sunny.14 mph66%29.95 "HgN/A
8:30 AM41 °FPartly sunny.15 mph66%29.92 "HgN/A
8:00 AM41 °FScattered clouds.12 mph66%29.92 "HgN/A
7:30 AM39 °FPassing clouds.12 mph70%29.92 "HgN/A
7:00 AM39 °FPassing clouds.14 mph65%29.92 "HgN/A
6:30 AM39 °FPassing clouds.13 mph65%29.92 "HgN/A
6:00 AM39 °FPassing clouds.14 mph65%29.92 "HgN/A
5:30 AM39 °FClear.16 mph65%29.89 "Hg10 mi
5:00 AM39 °FClear.13 mph65%29.92 "Hg10 mi
4:30 AM39 °FPassing clouds.14 mph65%29.89 "HgN/A
4:00 AM41 °FClear.12 mph61%29.92 "Hg10 mi
3:30 AM43 °FPassing clouds.10 mph57%29.92 "HgN/A
3:00 AM43 °FClear.13 mph57%29.92 "Hg10 mi
2:30 AM45 °FPassing clouds.13 mph53%29.92 "HgN/A
2:00 AM45 °FPassing clouds.13 mph53%29.89 "HgN/A
Weather by CustomWeather, © 2015

See weather overviewHow to use our weather pages